This demonstration page uses our WeatherBlox Daily Observations layout. Learn more.

Left ArrowRight Arrow

39.51506, -84.39828

Hourly Observations for February 16, 2018

Temp ( °F °C ) Dew Point ( °F °C ) Humidity (%) Winds ( mph kmh ) Pressure ( in mb ) Visibility ( mi km ) Precip ( " mm )
12:15 am 00:15 Cloudy 56 13.6 55 12.9 96 96 SW 9 15 29.77 1008 7 11 0.01 0.25
12:35 am 00:35 Cloudy 56 13.6 55 12.8 95 95 SW 9 15 29.74 1007 10 16 0.03 0.76
12:55 am 00:55 Cloudy 56 13.4 55 12.8 96 96 SW 8 13 29.74 1007 7 11 0.04 1.02
1:15 am 01:15 Cloudy 56 13.4 55 12.7 96 96 SW 10 17 29.74 1007 10 16 0.03 0.76
1:35 am 01:35 Cloudy 56 13.4 55 12.7 96 96 SW 13 20 29.74 1007 10 16 0.05 1.27
1:55 am 01:55 Cloudy 56 13.2 54 12.4 95 95 SW 12 19 29.74 1007 10 16 0.08 2.03
2:15 am 02:15 Cloudy 56 13.1 54 12.4 96 96 WSW 10 17 29.74 1007 7 11 0.03 0.76
2:35 am 02:35 Cloudy 55 12.9 54 12.3 96 96 SW 8 13 29.74 1007 10 16 0.06 1.52
2:55 am 02:55 Cloudy 55 12.8 54 12.3 97 97 WSW 8 13 29.80 1009 10 16 0.08 2.03
3:15 am 03:15 Cloudy 55 12.9 54 12.3 96 96 WSW 7 11 29.80 1009 10 16 0.01 0.25
3:35 am 03:35 Cloudy 55 12.8 54 12.3 97 97 WSW 6 9 29.80 1009 10 16 0.03 0.76
3:55 am 03:55 Cloudy 55 12.8 54 12.3 97 97 WSW 5 7 29.80 1009 10 16 0.05 1.27
4:15 am 04:15 Cloudy 55 12.8 54 12.2 96 96 SW 6 9 29.80 1009 10 16 0.01 0.25
4:35 am 04:35 Cloudy 54 12.4 54 12 97 97 WSW 6 9 29.80 1009 10 16 0.02 0.51
4:55 am 04:55 Cloudy 53 11.8 51 10.7 93 93 NNW 6 9 29.80 1009 10 16 0.03 0.76
5:15 am 05:15 Cloudy 52 11.2 51 10.5 96 96 N 3 6 29.80 1009 10 16 0.01 0.25
5:35 am 05:35 Cloudy with Light Rain 52 11 51 10.3 95 95 NNW 8 13 29.83 1010 10 16 0.02 0.51
5:55 am 05:55 Cloudy 51 10.7 50 9.8 94 94 N 9 15 29.83 1010 10 16 0.03 0.76
6:15 am 06:15 Cloudy 51 10.4 49 9.5 94 94 NNW 10 17 29.85 1011 7 11 0.01 0.25
6:35 am 06:35 Cloudy 50 10.2 48 9 92 92 NNW 20 31 29.85 1011 7 11 0.02 0.51
6:55 am 06:55 Cloudy 47 8.5 46 7.5 94 94 N 14 22 29.88 1012 5 8 0.02 0.51
7:15 am 07:15 Cloudy 46 8 44 6.9 93 93 NNW 14 22 29.88 1012 5 8 0.01 0.25
7:35 am 07:35 Cloudy 46 7.6 43 6.3 92 92 N 13 20 29.88 1012 5 8 0.01 0.25
7:55 am 07:55 Cloudy 45 7.2 41 5.2 87 87 N 15 24 29.91 1013 5 8 0.01 0.25
8:15 am 08:15 Cloudy 44 6.7 40 4.7 87 87 NNW 12 19 29.97 1015 5 8 0.00 0.00
8:35 am 08:35 Cloudy with Mist and Fog 44 6.4 40 4.3 87 87 NNW 12 19 29.97 1015 5 8 0.00 0.00
8:55 am 08:55 Cloudy with Drizzle 43 6.1 40 4.2 88 88 NNW 8 13 30.00 1016 5 8 0.00 0.00
9:15 am 09:15 Cloudy with Light Rain 43 5.9 39 4 88 88 NNW 6 9 30.00 1016 4 6 0.00 0.00
9:35 am 09:35 Cloudy with Light Rain 42 5.8 40 4.2 90 90 NNW 9 15 30.00 1016 4 6 0.00 0.00
9:55 am 09:55 Cloudy with Mist and Fog 42 5.7 38 3.6 87 87 NNW 8 13 30.03 1017 4 6 0.00 0.00
10:15 am 10:15 Cloudy with Mist and Fog 42 5.7 38 3.6 87 87 NNW 9 15 30.03 1017 4 6 0.00 0.00
10:35 am 10:35 Mostly Cloudy 42 5.7 38 3.2 84 84 NNW 14 22 30.06 1018 4 6 0.00 0.00
10:55 am 10:55 Cloudy 42 5.3 37 2.5 82 82 NNW 16 26 30.06 1018 5 8 0.00 0.00
11:15 am 11:15 Mostly Cloudy 41 5.2 35 1.9 79 79 NNW 16 26 30.09 1019 7 11 0.00 0.00
11:35 am 11:35 Mostly Cloudy 41 5.1 35 1.8 79 79 N 12 19 30.09 1019 7 11 0.00 0.00
11:55 am 11:55 Cloudy 40 4.5 35 1.7 82 82 NNW 15 24 30.15 1021 5 8 0.00 0.00
12:15 pm 12:15 Cloudy 40 4.5 35 1.8 83 83 NNW 8 13 30.15 1021 5 8 0.00 0.00
12:35 pm 12:35 Cloudy 40 4.6 34 1.3 79 79 NNW 12 19 30.15 1021 7 11 0.00 0.00
12:55 pm 12:55 Partly Cloudy 40 4.4 33 0.3 75 75 NNW 13 20 30.18 1022 10 16 0.00 0.00
1:15 pm 13:15 Sunny 40 4.2 31 -0.7 71 71 N 14 22 30.15 1021 10 16 0.00 0.00
1:35 pm 13:35 Mostly Cloudy 39 4.1 31 -0.5 72 72 NW 24 39 30.18 1022 10 16 0.00 0.00
1:55 pm 13:55 Cloudy 40 4.2 31 -0.3 73 73 NW 14 22 30.18 1022 10 16 0.00 0.00
2:15 pm 14:15 Cloudy 40 4.2 29 -1.5 67 67 NNW 15 24 30.18 1022 10 16 0.00 0.00
2:35 pm 14:35 Cloudy 40 4.5 29 -1.4 66 66 NW 14 22 30.21 1023 10 16 0.00 0.00
2:55 pm 14:55 Mostly Cloudy 40 4.5 29 -1.7 64 64 NNW 9 15 30.21 1023 10 16 0.00 0.00
3:15 pm 15:15 Mostly Cloudy 40 4.2 29 -1.9 65 65 NNW 10 17 30.24 1024 10 16 0.00 0.00
3:35 pm 15:35 Cloudy 39 4 28 -2.2 64 64 N 12 19 30.24 1024 10 16 0.00 0.00
3:55 pm 15:55 Cloudy 39 3.7 27 -2.6 64 64 N 8 13 30.24 1024 10 16 0.00 0.00
4:15 pm 16:15 Cloudy 38 3.6 28 -2.3 66 66 NNW 10 17 30.24 1024 10 16 0.00 0.00
4:35 pm 16:35 Mostly Cloudy 39 3.7 27 -2.8 63 63 N 6 9 30.27 1025 10 16 0.00 0.00
4:55 pm 16:55 Cloudy 38 3.6 28 -2.5 65 65 NNW 7 11 30.27 1025 10 16 0.00 0.00
5:15 pm 17:15 Cloudy 38 3.5 27 -2.8 64 64 NNW 8 13 30.27 1025 10 16 0.00 0.00
5:35 pm 17:35 Cloudy 38 3.4 27 -2.8 64 64 N 9 15 30.30 1026 10 16 0.00 0.00
5:55 pm 17:55 Cloudy 38 3.3 27 -2.6 66 66 N 9 15 30.30 1026 10 16 0.00 0.00
6:15 pm 18:15 Cloudy 37 2.8 26 -3.3 65 65 N 12 19 30.30 1026 10 16 0.00 0.00
6:35 pm 18:35 Partly Cloudy 35 1.9 26 -3.6 67 67 N 5 7 30.30 1026 10 16 0.00 0.00
6:55 pm 18:55 Cloudy 36 2.4 26 -3.4 66 66 NNW 3 6 30.33 1027 10 16 0.00 0.00
7:15 pm 19:15 Cloudy 37 2.5 24 -4.2 62 62 NNE 7 11 30.33 1027 10 16 0.00 0.00
7:35 pm 19:35 Cloudy 36 2.4 25 -4.1 63 63 NE 5 7 30.33 1027 10 16 0.00 0.00
7:55 pm 19:55 Cloudy 36 2.3 26 -3.5 66 66 N 3 6 30.33 1027 10 16 0.00 0.00
8:15 pm 20:15 Cloudy 36 2.2 26 -3.4 67 67 NNW 5 7 30.33 1027 10 16 0.00 0.00
8:35 pm 20:35 Cloudy 36 2 26 -3.1 69 69 N 3 6 30.33 1027 10 16 0.00 0.00
8:55 pm 20:55 Cloudy 35 1.8 26 -3.3 69 69 NNW 5 7 30.33 1027 10 16 0.00 0.00
9:15 pm 21:15 Cloudy 35 1.6 26 -3.5 69 69 NNW 6 9 30.33 1027 10 16 0.00 0.00
9:35 pm 21:35 Mostly Cloudy 35 1.4 25 -4 68 68 NW 7 11 30.33 1027 10 16 0.00 0.00
9:55 pm 21:55 Cloudy 34 1.2 25 -3.7 70 70 N 5 7 30.33 1027 10 16 0.00 0.00
10:15 pm 22:15 Cloudy 34 0.9 26 -3.6 72 72 Calm 30.33 1027 10 16 0.00 0.00
10:35 pm 22:35 Cloudy 33 0.7 26 -3.6 73 73 NE 5 7 30.33 1027 10 16 0.00 0.00
10:55 pm 22:55 Cloudy 33 0.4 25 -3.8 74 74 NNE 5 7 30.33 1027 10 16 0.00 0.00
11:15 pm 23:15 Mostly Cloudy 33 0.3 26 -3.5 76 76 NE 5 7 30.33 1027 10 16 0.00 0.00
11:35 pm 23:35 Cloudy 33 0.3 25 -3.7 75 75 N 3 6 30.33 1027 10 16 0.00 0.00
11:55 pm 23:55 Cloudy 33 0.3 25 -3.8 74 74 NE 5 7 30.33 1027 10 16 0.00 0.00

Powered by AerisWeather